TimeCST,TemperatureF,Dew PointF,Humidity,Sea Level PressureIn,VisibilityMPH,Wind Direction,Wind SpeedMPH,Gust SpeedMPH,PrecipitationIn,Events,Conditions,WindDirDegrees,DateUTC
12:15 AM,50.5,23.5,35,29.69,10.0,SSW,13.8,19.6,N/A,,Scattered Clouds,200,2012-12-06 06:15:00
12:35 AM,50.9,23.5,34,29.68,10.0,SSW,15.0,21.9,N/A,,Scattered Clouds,210,2012-12-06 06:35:00
12:55 AM,51.3,23.5,34,29.68,10.0,SSW,16.1,21.9,N/A,,Scattered Clouds,210,2012-12-06 06:55:00
1:15 AM,50.9,23.5,34,29.69,10.0,SW,17.3,20.7,N/A,,Scattered Clouds,230,2012-12-06 07:15:00
1:35 AM,51.1,23.7,34,29.68,10.0,SW,10.4,19.6,N/A,,Mostly Cloudy,230,2012-12-06 07:35:00
1:55 AM,50.7,23.9,35,29.69,10.0,WSW,10.4,20.7,N/A,,Scattered Clouds,240,2012-12-06 07:55:00
2:15 AM,50.5,24.3,36,29.72,10.0,WSW,11.5,-,N/A,,Mostly Cloudy,240,2012-12-06 08:15:00
2:35 AM,50.4,24.6,37,29.73,10.0,West,10.4,-,N/A,,Overcast,270,2012-12-06 08:35:00
2:55 AM,49.3,28.4,45,29.75,10.0,West,13.8,-,N/A,Rain,Light Rain,280,2012-12-06 08:55:00
3:14 AM,47.8,32.2,55,29.76,10.0,West,15.0,-,N/A,Rain,Light Rain,280,2012-12-06 09:14:00
3:35 AM,45.1,34.7,67,29.76,10.0,WNW,12.7,-,N/A,Rain,Light Rain,290,2012-12-06 09:35:00
3:55 AM,44.6,35.6,71,29.76,10.0,WNW,12.7,-,N/A,,Light Drizzle,300,2012-12-06 09:55:00
4:15 AM,45.1,34.0,65,29.78,10.0,WNW,16.1,21.9,N/A,,Overcast,300,2012-12-06 10:15:00
4:35 AM,45.1,33.1,63,29.79,10.0,WNW,15.0,21.9,N/A,,Mostly Cloudy,300,2012-12-06 10:35:00
4:55 AM,44.1,32.0,63,29.79,10.0,WNW,8.1,-,N/A,,Scattered Clouds,300,2012-12-06 10:55:00
5:15 AM,41.9,32.0,68,29.80,10.0,West,6.9,-,N/A,,Clear,280,2012-12-06 11:15:00
5:35 AM,41.9,31.6,67,29.80,10.0,West,8.1,-,N/A,,Clear,280,2012-12-06 11:35:00
5:55 AM,41.5,30.6,65,29.82,10.0,WNW,13.8,-,N/A,,Clear,300,2012-12-06 11:55:00
6:15 AM,43.3,28.6,56,29.83,10.0,WNW,17.3,25.3,N/A,,Clear,300,2012-12-06 12:15:00
6:35 AM,41.4,29.1,62,29.85,10.0,WNW,12.7,-,N/A,,Clear,300,2012-12-06 12:35:00
6:55 AM,40.1,29.7,66,29.86,10.0,WNW,13.8,-,N/A,,Clear,300,2012-12-06 12:55:00
7:15 AM,41.0,29.7,64,29.87,10.0,WNW,18.4,24.2,N/A,,Clear,300,2012-12-06 13:15:00
7:35 AM,40.6,29.8,65,29.87,10.0,NW,18.4,-,N/A,,Clear,310,2012-12-06 13:35:00
7:55 AM,39.2,29.8,69,29.88,10.0,WNW,16.1,21.9,N/A,,Clear,300,2012-12-06 13:55:00
8:15 AM,38.8,29.5,69,29.88,10.0,WNW,11.5,-,N/A,,Clear,290,2012-12-06 14:15:00
8:35 AM,39.2,30.2,70,29.89,10.0,WNW,16.1,20.7,N/A,,Scattered Clouds,290,2012-12-06 14:35:00
8:55 AM,39.4,30.2,70,29.89,10.0,WNW,12.7,-,N/A,,Scattered Clouds,290,2012-12-06 14:55:00
9:15 AM,40.3,30.7,69,29.89,10.0,WNW,18.4,-,N/A,,Clear,300,2012-12-06 15:15:00
9:35 AM,41.0,30.7,67,29.89,10.0,WNW,15.0,21.9,N/A,,Clear,300,2012-12-06 15:35:00
9:55 AM,42.1,30.7,64,29.90,10.0,WNW,18.4,27.6,N/A,,Clear,300,2012-12-06 15:55:00
10:15 AM,42.6,30.0,61,29.91,10.0,NW,18.4,27.6,N/A,,Clear,320,2012-12-06 16:15:00
10:35 AM,43.2,30.4,61,29.90,10.0,WNW,20.7,25.3,N/A,,Clear,300,2012-12-06 16:35:00
10:55 AM,43.7,30.4,59,29.91,10.0,NW,15.0,19.6,N/A,,Clear,310,2012-12-06 16:55:00
11:15 AM,44.1,30.4,59,29.91,10.0,NW,12.7,21.9,N/A,,Clear,310,2012-12-06 17:15:00
11:35 AM,44.6,30.2,57,29.91,10.0,NW,15.0,19.6,N/A,,Clear,320,2012-12-06 17:35:00
11:55 AM,45.0,30.0,56,29.92,10.0,NW,10.4,20.7,N/A,,Scattered Clouds,310,2012-12-06 17:55:00
12:15 PM,45.0,29.3,54,29.91,10.0,NW,11.5,-,N/A,,Scattered Clouds,310,2012-12-06 18:15:00
12:35 PM,45.5,29.3,53,29.91,10.0,WNW,9.2,18.4,N/A,,Scattered Clouds,300,2012-12-06 18:35:00
12:55 PM,46.6,28.9,50,29.91,10.0,WNW,13.8,18.4,N/A,,Scattered Clouds,300,2012-12-06 18:55:00
1:14 PM,45.7,28.2,51,29.92,10.0,WNW,19.6,24.2,N/A,,Scattered Clouds,300,2012-12-06 19:14:00
1:35 PM,45.1,28.4,52,29.92,10.0,WNW,12.7,-,N/A,,Clear,300,2012-12-06 19:35:00
1:55 PM,45.0,28.6,53,29.92,10.0,WNW,12.7,18.4,N/A,,Clear,300,2012-12-06 19:55:00
2:15 PM,44.4,28.2,53,29.93,10.0,WNW,17.3,-,N/A,,Clear,300,2012-12-06 20:15:00
2:35 PM,43.7,27.7,53,29.93,10.0,WNW,18.4,-,N/A,,Scattered Clouds,300,2012-12-06 20:35:00
2:48 PM,42.8,27.5,55,29.93,10.0,WNW,16.1,20.7,N/A,,Scattered Clouds,290,2012-12-06 20:48:00
3:05 PM,42.8,26.6,53,29.93,10.0,NW,12.7,-,N/A,,Clear,310,2012-12-06 21:05:00
3:25 PM,42.8,26.6,53,29.95,10.0,WNW,15.0,-,N/A,,Clear,300,2012-12-06 21:25:00
3:45 PM,42.8,26.6,53,29.95,10.0,NW,12.7,19.6,N/A,,Clear,310,2012-12-06 21:45:00
4:05 PM,41.0,24.8,53,29.96,10.0,WNW,12.7,19.6,N/A,,Clear,300,2012-12-06 22:05:00
4:25 PM,39.2,23.0,52,29.97,10.0,NW,11.5,-,N/A,,Clear,310,2012-12-06 22:25:00
4:39 PM,39.0,23.5,54,29.98,10.0,WNW,12.7,-,N/A,,Clear,300,2012-12-06 22:39:00
4:48 PM,38.3,23.5,55,29.98,10.0,WNW,11.5,-,N/A,,Clear,300,2012-12-06 22:48:00
5:15 PM,35.4,22.6,60,29.98,10.0,WNW,6.9,-,N/A,,Clear,300,2012-12-06 23:15:00
5:35 PM,32.5,22.6,67,29.98,10.0,West,4.6,-,N/A,,Clear,280,2012-12-06 23:35:00
5:55 PM,31.3,21.6,67,29.98,10.0,NW,4.6,-,N/A,,Clear,310,2012-12-06 23:55:00
6:15 PM,30.0,21.0,69,29.98,10.0,NW,5.8,-,N/A,,Clear,310,2012-12-07 00:15:00
6:35 PM,29.5,21.0,71,29.99,10.0,NW,3.5,-,N/A,,Clear,320,2012-12-07 00:35:00
7:15 PM,27.5,19.8,73,30.00,10.0,WNW,4.6,-,N/A,,Clear,300,2012-12-07 01:15:00
7:35 PM,26.4,19.4,75,30.01,10.0,WNW,3.5,-,N/A,,Clear,300,2012-12-07 01:35:00
7:55 PM,23.9,18.3,79,30.01,10.0,NW,6.9,-,N/A,,Clear,310,2012-12-07 01:55:00
8:15 PM,23.7,18.5,80,30.02,10.0,NW,5.8,-,N/A,,Clear,310,2012-12-07 02:15:00
8:35 PM,23.9,18.7,80,30.02,10.0,WNW,6.9,-,N/A,,Clear,300,2012-12-07 02:35:00
8:55 PM,24.6,19.0,79,30.02,10.0,WNW,8.1,-,N/A,,Clear,300,2012-12-07 02:55:00
9:15 PM,23.7,18.9,82,30.02,10.0,WNW,5.8,-,N/A,,Clear,300,2012-12-07 03:15:00
9:35 PM,23.9,18.9,81,30.01,10.0,NW,4.6,-,N/A,,Clear,310,2012-12-07 03:35:00
9:55 PM,24.8,20.1,82,30.01,10.0,WSW,3.5,-,N/A,,Clear,240,2012-12-07 03:55:00
10:15 PM,26.4,20.7,79,30.00,10.0,NW,4.6,-,N/A,,Scattered Clouds,310,2012-12-07 04:15:00
10:35 PM,25.3,20.3,81,30.01,10.0,NW,3.5,-,N/A,,Clear,310,2012-12-07 04:35:00
10:55 PM,25.3,20.3,81,30.01,10.0,NW,4.6,-,N/A,,Clear,310,2012-12-07 04:55:00
11:15 PM,25.7,20.8,82,30.02,10.0,WNW,3.5,-,N/A,,Clear,300,2012-12-07 05:15:00
11:35 PM,25.7,21.2,83,30.02,10.0,West,3.5,-,N/A,,Scattered Clouds,280,2012-12-07 05:35:00
11:55 PM,27.0,21.6,80,30.03,10.0,Calm,Calm,-,N/A,,Scattered Clouds,0,2012-12-07 05:55:00